Regional Weather Roundup
Issued by NWS

Home | Current Version | Previous Version | Text Only | Print | Product List | Glossary Off
Versions: 1 2 3 4 5 6 7 8 9 10 11 12 13 14 15 16 17 18 19 20 21 22 23 24 25 26 27 28 29 30 31 32 33 34 35 36 37 38 39 40 41 42 43 44 45 46 47 48 49 50

000
ASUS44 KMEG 160200
RWRTN
TENNESSEE HOURLY STATE WEATHER ROUNDUP
NATIONAL WEATHER SERVICE MEMPHIS TN
800 PM CST SUN JAN 15 2017

TNZ002-004-019-021-049-052-054-088>092-160300-
WEST TENNESSEE

CITY           SKY/WX    TMP DP  RH WIND       PRES   REMARKS
MEMPHIS INTL   CLOUDY    52  51  97 NE9       30.19F VSB 1
NWS MEMPHIS      N/A     51 N/A N/A MISG        N/A
JACKSON        CLOUDY    51  50  96 NE6       30.22S
DYERSBURG      CLOUDY    46  45  93 E8        30.24R
UNION CITY     CLOUDY   N/A N/A N/A CALM      30.23S
PARIS          CLOUDY    43  43 100 CALM      30.25S
$$

TNZ008-025-027-028-033-062-065-066-160300-
NORTH MIDDLE TENNESSEE

CITY           SKY/WX    TMP DP  RH WIND       PRES   REMARKS
NASHVILLE      CLOUDY    53  48  83 NE5       30.27S
CLARKSVILLE    FOG       45  44  97 NE5       30.27F VSB 1/2
SMYRNA         CLOUDY    51  49  92 CALM      30.27F
CROSSVILLE     CLOUDY    53  52  96 CALM      30.28S
$$

TNZ061-075-076-078-094-096-097-160300-
SOUTH MIDDLE TENNESSEE

CITY           SKY/WX    TMP DP  RH WIND       PRES   REMARKS
TULLAHOMA      PTCLDY    54  52  94 CALM      30.25S
WINCHESTER     MOCLDY    57  55  94 CALM      30.25S
MCMINNVILLE    CLOUDY    57  55  94 N5        30.25F
COLUMBIA       PTCLDY   N/A N/A N/A CALM      30.22S
SHELBYVILLE    CLEAR     55  54  94 NW8       30.26S
$$

TNZ017-018-042-046-047-160300-
NORTHEAST TENNESSEE

CITY           SKY/WX    TMP DP  RH WIND       PRES   REMARKS
TRI CITIES     CLOUDY    56  54  93 CALM      30.28S
$$

TNZ012-013-036-069-073-074-160300-
CENTRAL EAST TENNESSEE

CITY           SKY/WX    TMP DP  RH WIND       PRES   REMARKS
KNOXVILLE      PTCLDY    57  54  89 NE5       30.25S
OAK RIDGE      CLOUDY    57  54  89 CALM      30.28S
GATLINBURG     MOCLDY    52  52 100 CALM      30.27S VSB 1/2
$$

TNZ083-085-099-160300-
SOUTHEAST TENNESSEE

CITY           SKY/WX    TMP DP  RH WIND       PRES   REMARKS
CHATTANOOGA    PTCLDY    60  52  74 CALM      30.24S
$$

SKY/WX REPORTED AS FAIR MEANS FEW OR NO CLOUDS BELOW
12 THOUSAND FEET.





USA.gov is the U.S. government's official web portal to all federal, state and local government web resources and services.